Weather History for Chapel Hill, NC

Change the Weather History Date:

Friday, November 23, 2012

  Actual Average Record
Temperature  
Mean Temperature 47 °F -  
Max Temperature 64 °F 58 °F 78 °F (1983)
Min Temperature 30 °F 33 °F 18 °F (1964)
Degree Days  
Heating Degree Days 18    
Moisture  
Dew Point 31 °F    
Average Humidity 57    
Maximum Humidity 85    
Minimum Humidity 32    
Precipitation  
Precipitation 0.00 in - - ()
Sea Level Pressure  
Sea Level Pressure 30.02 in    
Wind  
Wind Speed 1 mph (West)    
Max Wind Speed 13 mph    
Max Gust Speed 21 mph    
Visibility 10 miles    
Events      
Averages and records for this station are not official NWS values.
T = Trace of Precipitation, MM = Missing Value Source: NWS Daily Summary

Daily Weather History Graph

Daily Weather History Graph

Search for Another Location

Airport:

Trip Planner

Search our weather history database for the weather conditions in past years. The results will help you decide how hot, cold, wet, or windy it might be!

Date:

Astronomy

Nov. 23, 2012 Rise Set
Actual Time 7:01 AM EST 5:04 PM EST
Civil Twilight 6:33 AM EST 5:32 PM EST
Nautical Twilight 6:01 AM EST 6:03 PM EST
Astronomical Twilight 5:31 AM EST 6:34 PM EST
Moon 2:11 PM EST (11/23) 2:25 AM EST (11/23)
Length of Visible Light 10h 58m
Length of Day
10h 03m
Waxing Gibbous, 79% of the Moon is Illuminated
Nov 23
Waxing Gibbous
Nov 28
Full
Dec 6
Last Quarter
Dec 13
New
Dec 20
First Quarter

Hourly Weather History & Observations

Time (EST) Temp. Dew Point Humidity Pressure Visibility Wind Dir Wind Speed Gust Speed Precip Events Conditions
12:56 AM 34.0 °F 27.0 °F 75% 30.16 in 10.0 mi Calm Calm - N/A   Clear
1:56 AM 32.0 °F 26.1 °F 79% 30.16 in 10.0 mi Calm Calm - N/A   Clear
2:56 AM 32.0 °F 27.0 °F 82% 30.15 in 10.0 mi Calm Calm - N/A   Clear
3:56 AM 30.9 °F 26.1 °F 82% 30.14 in 10.0 mi Calm Calm - N/A   Clear
4:56 AM 30.9 °F 26.1 °F 82% 30.14 in 10.0 mi Calm Calm - N/A   Clear
5:56 AM 30.0 °F 26.1 °F 85% 30.14 in 10.0 mi Calm Calm - N/A   Clear
6:56 AM 30.0 °F 26.1 °F 85% 30.14 in 10.0 mi Calm Calm - N/A   Clear
7:56 AM 33.1 °F 28.0 °F 82% 30.13 in 10.0 mi Calm Calm - N/A   Clear
8:56 AM 45.0 °F 30.0 °F 56% 30.12 in 10.0 mi Calm Calm - N/A   Clear
9:56 AM 53.1 °F 30.0 °F 41% 30.09 in 10.0 mi Calm Calm - N/A   Clear
10:56 AM 57.9 °F 28.9 °F 33% 30.07 in 10.0 mi Variable 4.6 mph - N/A   Clear
11:56 AM 61.0 °F 30.9 °F 32% 30.04 in 10.0 mi Calm Calm - N/A   Clear
1:56 PM 64.9 °F 34.0 °F 32% 29.95 in 10.0 mi Variable 3.5 mph - N/A   Clear
2:56 PM 64.9 °F 34.0 °F 32% 29.92 in 10.0 mi Variable 4.6 mph - N/A   Clear
3:56 PM 64.0 °F 35.1 °F 34% 29.90 in 10.0 mi SW 4.6 mph - N/A   Clear
4:56 PM 60.1 °F 36.0 °F 41% 29.89 in 10.0 mi Calm Calm - N/A   Clear
5:56 PM 54.0 °F 36.0 °F 51% 29.90 in 10.0 mi Calm Calm - N/A   Clear
6:56 PM 52.0 °F 37.0 °F 57% 29.90 in 10.0 mi Calm Calm - N/A   Clear
7:56 PM 53.1 °F 37.9 °F 57% 29.90 in 10.0 mi Calm Calm - N/A   Mostly Cloudy
8:56 PM 54.0 °F 37.0 °F 53% 29.90 in 10.0 mi West 3.5 mph - N/A   Clear
9:56 PM 55.0 °F 37.9 °F 53% 29.90 in 10.0 mi WNW 8.1 mph - N/A   Partly Cloudy
10:56 PM 55.0 °F 30.9 °F 40% 29.90 in 10.0 mi WNW 12.7 mph 20.7 mph N/A   Partly Cloudy
11:56 PM 53.1 °F 28.0 °F 38% 29.90 in 10.0 mi NW 11.5 mph 20.7 mph N/A   Clear